This demonstration page uses our WeatherBlox Daily Observations layout. Learn more.

Left ArrowRight Arrow

Hourly Observations for April 5, 2020

Temp ( °F °C ) Dew Point ( °F °C ) Humidity (%) Winds ( mph kmh ) Pressure ( in mb ) Visibility ( mi km ) Precip ( " mm )
12:53 am 00:53 Cloudy 50 10 46 7.8 86 86 S 17 28 29.62 1003 10 16 0.00 0.00
1:53 am 01:53 Cloudy 50 10 46 7.8 86 86 S 17 28 29.61 1003 10 16 0.00 0.00
2:53 am 02:53 Cloudy 50 10 46 7.8 86 86 SSE 18 30 29.59 1002 10 16 0.00 0.00
3:03 am 03:03 Mostly Cloudy 50 10 46 7.8 86 86 S 18 30 29.60 1002 10 16 0.00 0.00
3:53 am 03:53 Cloudy 50 10 46 7.8 86 86 SSE 18 30 29.58 1002 10 16 0.00 0.00
4:13 am 04:13 Cloudy 50 10 46 7.8 86 86 S 14 22 29.59 1002 10 16 0.00 0.00
4:33 am 04:33 Cloudy 51 10.6 46 7.8 83 83 SSE 17 28 29.58 1002 10 16 0.00 0.00
4:53 am 04:53 Cloudy 50 10 45 7.2 83 83 SSE 15 24 29.56 1001 10 16 0.00 0.00
5:13 am 05:13 Cloudy 50 10 45 7.2 83 83 SSE 13 20 29.57 1001 10 16 0.00 0.00
5:53 am 05:53 Cloudy 50 10 44 6.7 80 80 SSE 13 20 29.55 1001 10 16 0.00 0.00
6:06 am 06:06 Cloudy with Light Rain 50 10 45 7.2 83 83 SSE 20 31 29.55 1001 9 14 0.00 0.00
6:53 am 06:53 Cloudy with Light Rain 49 9.4 44 6.7 83 83 SE 12 19 29.54 1000 10 16 0.02 0.51
7:53 am 07:53 Cloudy with Light Rain 49 9.4 44 6.7 83 83 SE 13 20 29.54 1000 9 14 0.00 0.00
8:17 am 08:17 Cloudy 49 9.4 45 7.2 86 86 SE 10 17 29.54 1000 10 16 0.00 0.00
8:48 am 08:48 Cloudy 50 10 45 7 82 82 SE 8 13 29.54 1000 10 16 0.00 0.00
8:53 am 08:53 Cloudy 50 10 45 7.2 83 83 SE 8 13 29.52 1000 10 16 0.00 0.00
9:24 am 09:24 Cloudy 52 11.1 45 7.2 77 77 SSE 15 24 29.54 1000 10 16 0.00 0.00
9:53 am 09:53 Cloudy 52 11.1 45 7.2 77 77 SSE 21 33 29.52 1000 10 16 0.00 0.00
10:53 am 10:53 Cloudy 51 10.6 47 8.3 86 86 SSE 26 43 29.49 999 10 16 0.02 0.51
11:53 am 11:53 Mostly Cloudy 53 11.7 48 8.9 83 83 SSE 14 22 29.54 1001 10 16 0.00 0.00
12:10 pm 12:10 Cloudy 53 11.7 48 8.9 83 83 SSE 22 35 29.56 1001 10 16 0.00 0.00
12:53 pm 12:53 Mostly Cloudy 55 12.8 47 8.3 74 74 SSE 18 30 29.56 1001 10 16 0.00 0.00
1:21 pm 13:21 Partly Cloudy 55 12.8 45 7.2 69 69 SSE 20 31 29.56 1001 10 16 0.00 0.00
1:34 pm 13:34 Mostly Cloudy 55 12.8 45 7.2 69 69 S 18 30 29.56 1001 10 16 0.00 0.00
1:53 pm 13:53 Mostly Cloudy 56 13.3 44 6.7 65 65 SSE 23 37 29.55 1001 10 16 0.00 0.00
2:05 pm 14:05 Cloudy 57 13.9 44 6.7 62 62 SSE 21 33 29.55 1001 10 16 0.00 0.00
2:53 pm 14:53 Mostly Cloudy 56 13.3 44 6.7 65 65 S 21 33 29.55 1001 10 16 0.00 0.00
3:53 pm 15:53 Cloudy 56 13.3 42 5.6 60 60 S 22 35 29.54 1000 10 16 0.00 0.00
4:53 pm 16:53 Cloudy with Light Rain 55 12.8 43 6.1 64 64 S 23 37 29.55 1001 10 16 0.00 0.00
5:31 pm 17:31 Cloudy with Nearby Thunderstorms 55 12.8 37 2.8 51 51 SSW 9 15 29.57 1001 10 16 0.00 0.00
5:46 pm 17:46 Cloudy with Light Rain 55 12.8 38 3.3 53 53 Calm 29.57 1001 10 16 0.00 0.00
5:53 pm 17:53 Cloudy with Light Rain 54 12.2 39 3.9 57 57 NW 6 9 29.56 1001 10 16 0.00 0.00
6:53 pm 18:53 Cloudy 48 8.9 40 4.4 74 74 VRB 3 6 29.59 1002 10 16 0.00 0.00
7:53 pm 19:53 Cloudy 46 7.8 39 3.9 77 77 N 8 13 29.61 1003 10 16 0.00 0.00
8:53 pm 20:53 Cloudy 46 7.8 40 4.4 79 79 NNE 7 11 29.64 1004 10 16 0.00 0.00
9:53 pm 21:53 Cloudy 46 7.8 40 4.4 79 79 NNW 6 9 29.68 1005 10 16 0.00 0.00
10:53 pm 22:53 Cloudy 45 7.2 40 4.4 83 83 WNW 5 7 29.69 1006 10 16 0.00 0.00
11:53 pm 23:53 Cloudy 45 7.2 40 4.4 83 83 NNW 5 7 29.71 1006 10 16 0.00 0.00

Powered by AerisWeather